SB KEPS @ AMSAT $ORB11287.N 2Line Orbital Elements 11287.AMSAT
HR AMSAT ORBITAL ELEMENTS FOR AMATEUR SATELLITES IN NASA FORMAT FROM WA5QGD FORT WORTH,TX October 14, 2011 Send Subscribe/unsubscribe to KEPS at http://www.amsat.org/mailman/listinfo/keps BID: ORB11287.N
DECODE 2-LINE ELSETS WITH THE FOLLOWING KEY: 1 AAAAAU 00 0 0 BBBBB.BBBBBBBB .CCCCCCCC 00000-0 00000-0 0 DDDZ 2 AAAAA EEE.EEEE FFF.FFFF GGGGGGG HHH.HHHH III.IIII JJ.JJJJJJJJKKKKKZ KEY: A-CATALOGNUM B-EPOCHTIME C-DECAY D-ELSETNUM E-INCLINATION F-RAAN G-ECCENTRICITY H-ARGPERIGEE I-MNANOM J-MNMOTION K-ORBITNUM Z-CHECKSUM
TO ALL RADIO AMATEURS BT
AO-07 1 07530U 74089B 11287.06697827 -.00000027 00000-0 10000-3 0 2040 2 07530 101.3973 288.9328 0012191 045.8435 314.3641 12.53584521689083 FO-29 1 24278U 96046B 11285.93312805 -.00000018 00000-0 21141-4 0 06963 2 24278 098.5648 054.2908 0349918 312.2752 044.9200 13.52965894748380 SO-33 1 25509U 98061B 11285.43589700 .00000465 00000-0 78841-4 0 00761 2 25509 031.4327 301.1425 0353862 187.0821 172.4752 14.28458793677057 RS-22 1 27939U 03042A 11287.04032676 .00000598 00000-0 12342-3 0 7159 2 27939 097.8306 135.2756 0013101 333.7442 026.3104 14.63679573429727 VO-52 1 28650U 05017B 11287.04959442 .00001028 00000-0 13422-3 0 9233 2 28650 097.6290 324.7909 0027656 130.2995 230.0655 14.82250936348359 SO-67 1 35870U 09049F 11287.16187899 .00004834 00000-0 21865-3 0 3115 2 35870 097.2683 326.5024 0002067 012.0774 072.2248 15.21366659115026 HO-68 1 36122U 09072B 11287.11489827 -.00000044 00000-0 00000 0 0 8280 2 36122 100.4022 346.0522 0007421 316.3694 043.6838 13.16288811 87885 UO-11 1 14781U 84021B 11286.85827410 .00000697 00000-0 98952-4 0 6782 2 14781 097.9916 343.1071 0009994 111.2076 249.0207 14.80075791483340 AO-16 1 20439U 90005D 11286.88071389 .00000173 00000-0 80072-4 0 3024 2 20439 098.3972 232.6038 0010768 167.1633 192.9827 14.31950993134607 LO-19 1 20442U 90005G 11285.89370759 .00000168 00000-0 78086-4 0 02341 2 20442 098.3618 235.5548 0012007 163.3687 196.7884 14.32174000134648 AO-27 1 22825U 93061C 11285.89269331 .00000171 00000-0 84046-4 0 09384 2 22825 098.5442 227.9791 0007560 291.5029 068.5344 14.29373212941004 IO-26 1 22826U 93061D 11285.87047635 .00000191 00000-0 91633-4 0 06923 2 22826 098.5369 228.3950 0008220 287.7128 072.3152 14.29638368941125 GO-32 1 25397U 98043D 11285.74089370 -.00000054 00000-0 -58645-5 0 06031 2 25397 098.3373 272.0793 0000446 338.1266 021.9878 14.23223464688686 NO-44 1 26931U 01043C 11285.70855543 -.00000012 00000-0 27463-4 0 08734 2 26931 067.0528 040.6991 0004924 257.4134 102.6416 14.29690221523720 SO-50 1 27607U 02058C 11286.49840168 .00000901 00000-0 15817-3 0 5884 2 27607 064.5611 328.1289 0081633 296.7166 062.5555 14.71865798473501 CO-55 1 27844U 03031E 11285.56848757 .00000290 00000-0 15426-3 0 2196 2 27844 098.7079 292.5760 0009012 218.6768 141.3774 14.20860099429582 CO-57 1 27848U 03031J 11286.51633287 .00000234 00000-0 12909-3 0 1668 2 27848 098.7148 292.7411 0009039 220.1784 139.8720 14.20634069429661 AO-51 1 28375U 04025K 11286.65828277 .00000225 00000-0 79945-4 0 942 2 28375 098.1126 258.9654 0084948 070.7344 290.3026 14.40793964383127 CP3 1 31129U 07012N 11286.97735737 .00000879 00000-0 21090-3 0 9924 2 31129 097.8923 304.3010 0102372 171.1897 189.1181 14.52603752238081 CO-65 1 32785U 08021C 11285.21457799 .00001835 00000-0 23630-3 0 01218 2 32785 097.8360 346.7959 0015262 151.0171 209.1891 14.82200896186875 PRISM 1 33493U 09002B 11287.13644291 .00003344 00000-0 42586-3 0 502 2 33493 098.1402 057.6133 0020058 019.5534 340.6434 14.82121792147132 SOHLA-1 1 33496U 09002E 11287.26593773 .00000569 00000-0 10383-3 0 5429 2 33496 098.0898 035.9542 0007428 101.0585 259.1458 14.69691288145972 TISAT-1 1 36799U 10035E 11287.14137314 .00002120 00000-0 28144-3 0 3212 2 36799 098.0908 356.5126 0014127 251.0278 108.9418 14.80833386 67916 STUDSAT 1 36801U 10035G 11287.26568741 .00005963 00000-0 76927-3 0 2568 2 36801 098.0941 356.5975 0012645 240.0731 119.9224 14.81336643 67927 OOREOS 1 37224U 10062C 11283.12196780 .00000955 00000-0 14226-3 0 03021 2 37224 071.9656 145.3580 0018647 057.9354 302.3616 14.77183931047847 FO-69 1 37227U 0 11286.13823940 .00000656 00000-0 10148-3 0 01591 2 37227 071.9690 139.1788 0015368 060.4529 299.8162 14.76685262026733 NANOSALD 1 37361U 0 11242.25215765 .00180112 00000-0 75811-2 0 03512 2 37361 071.9735 221.4469 0025730 245.3422 114.7284 15.22200108033319 FO-70 1 37380U 0 11286.17068059 .00000558 00000-0 87978-4 0 02933 2 37380 071.9721 139.3575 0015926 057.2708 302.9986 14.76448091048277 NOAA-10 1 16969U 86073A 11285.68694046 .00000122 00000-0 67449-4 0 06665 2 16969 098.6098 313.8265 0011421 240.8368 119.1676 14.27484171304413 NOAA-11 1 19531U 88089A 11285.87007125 .00000188 00000-0 11974-3 0 06640 2 19531 098.7484 011.0826 0010689 209.1108 150.9467 14.14928146189396 NOAA-12 1 21263U 91032A 11285.98974986 .00000070 00000-0 48692-4 0 01785 2 21263 098.7478 303.6065 0013275 198.9358 161.1330 14.25443941061192 MET-3/5 1 21655U 91056A 11286.94858085 .00000051 00000-0 10000-3 0 2325 2 21655 082.5586 326.8703 0012728 215.4445 144.5842 13.17029109969352 MET-2/21 1 22782U 93055A 11286.84938202 .00000070 00000-0 49489-4 0 2287 2 22782 082.5475 228.7241 0023830 123.7040 236.6395 13.83664098914964 OKEAN-4 1 23317U 94066A 11286.90561788 .00001322 00000-0 15823-3 0 6923 2 23317 082.5373 262.2671 0023825 087.1508 273.2437 14.83207126918146 NOAA-14 1 23455U 94089A 11285.93750619 .00000018 00000-0 33041-4 0 06605 2 23455 098.8461 007.3644 0008881 309.8560 050.1828 14.13837370865715 NOAA-15 1 25338U 98030A 11285.92096111 .00000294 00000-0 14436-3 0 09825 2 25338 098.6671 270.5234 0011578 108.7786 251.4652 14.24961826697495 RESURS 1 25394U 98043A 11285.99227656 .00000062 00000-0 44714-4 0 09307 2 25394 098.3058 282.5611 0000415 245.6234 114.4900 14.24244365689073 FENGYUN1 1 25730U 99025A 11286.92485096 .00002125 00000-0 12507-2 0 4456 2 25730 098.8260 245.5736 0024794 346.2513 013.7974 14.08896492639789 OKEAN-0 1 25860U 99039A 11286.90483634 .00000700 00000-0 11428-3 0 4379 2 25860 097.8999 250.1866 0001232 039.2845 320.8452 14.73871857658140 NOAA-16 1 26536U 00055A 11285.93590397 .00000341 00000-0 20910-3 0 04644 2 26536 099.1302 318.8137 0011214 064.0732 296.1575 14.12653232569981 NOAA-17 1 27453U 02032A 11285.91516855 .00000281 00000-0 13954-3 0 04491 2 27453 098.3679 320.1525 0012050 160.2316 199.9325 14.24325116483417 NOAA-18 1 28654U 05018A 11285.69951920 .00000437 00000-0 26559-3 0 09261 2 28654 099.0101 237.2107 0014954 131.8880 228.3541 14.11527829329505 NOAA-19 1 33591U 09005A 11285.72277793 .00000183 00000-0 12552-3 0 01178 2 33591 098.8363 223.9473 0014349 007.5992 352.5382 14.11217343137964 HUBBLE 1 20580U 90037B 11285.23952254 .00002360 00000-0 16503-3 0 08508 2 20580 028.4712 331.7207 0003108 280.8947 079.1276 15.01609498977260 ISS 1 25544U 98067A 11285.91900602 .00007956 00000-0 10000-3 0 02347 2 25544 051.6409 288.0749 0016408 320.9217 117.1587 15.60589610739299 CO-58 1 28895U 05043F 11285.65747249 .00000801 00000-0 17511-3 0 09981 2 28895 097.9471 157.3927 0017083 208.9117 151.1152 14.60213713317388 FALCON 1 30776U 07006E 11286.60266033 .00004914 00000-0 34010-3 0 1924 2 30776 035.4344 346.7299 0001636 018.0682 342.0092 15.05211842252894 MAST 1 31126U 07012K 11285.93601965 .00000545 00000-0 13235-3 0 02937 2 31126 097.8884 306.4734 0094717 163.5469 196.8840 14.53830850238194 CAPE1 1 31130U 07012P 11286.85778306 .00000662 00000-0 16186-3 0 2947 2 31130 097.8931 303.9448 0102210 172.1491 188.1338 14.52501955237864 COMPASS 1 32787U 08021E 11286.72745723 .00002114 00000-0 26767-3 0 1163 2 32787 097.8373 348.2706 0016140 145.5899 214.6350 14.82739175187126 AAUSAT2 1 32788U 08021F 11287.14790254 .00002987 00000-0 37365-3 0 1074 2 32788 097.8373 348.9481 0015571 145.0150 215.2144 14.82955487187209 DO-64 1 32789U 08021G 11286.70924764 .00003999 00000-0 49016-3 0 1228 2 32789 097.8461 349.7642 0015725 144.9917 215.2319 14.83610976187156 CO-66 1 32791U 08021J 11286.70295023 .00001982 00000-0 25355-3 0 1107 2 32791 097.8384 348.1464 0016346 145.0110 215.2157 14.82379584187061 RS-30 1 32953U 08025A 11286.94901453 .00000010 00000-0 00000 0 0 1666 2 32953 082.4966 088.8833 0019410 126.0577 234.2312 12.43015811153844 TACSAT-3 1 35001U 09028A 11286.85270727 .00046953 00000-0 69109-3 0 7223 2 35001 040.4522 169.9558 0017250 005.7319 354.3705 15.54413951135511 PHARMSAT 1 35002U 09028B 11285.85195372 .00035948 00000-0 56247-3 0 06786 2 35002 040.4686 174.8638 0019616 011.6946 348.4314 15.52775129135377 HAWKSAT1 1 35003U 09028C 11278.76493853 .05638703 71200-5 11831-2 0 08211 2 35003 040.4370 161.0594 0006849 275.9761 084.3784 16.29831142134897 CP6 1 35004U 09028D 11247.64656856 .16152067 73217-5 10011-2 0 7842 2 35004 040.4403 342.9642 0002956 038.0069 322.2231 16.41039951130139 METEOR-M 1 35865U 09049A 11287.14901486 -.00000011 00000-0 14684-4 0 8103 2 35865 098.6928 340.6506 0003315 053.3280 306.8200 14.21841675107497 RS-38 1 35869U 09049E 11287.06383742 .00000046 00000-0 40776-4 0 7890 2 35869 098.6900 340.5943 0005435 052.1372 308.0304 14.22024684107492 ARISSAT1 1 37772U 98067CK 11287.15592322 .00086968 00000-0 77644-3 0 2175 2 37772 051.6373 280.5412 0009019 340.7396 111.0950 15.67620984 11081 /EX
participants (1)
-
Ray Hoad